Regional Weather Roundup
Issued by NWS

Home | Current Version | Previous Version | Text Only | Print | Product List | Glossary Off
Versions: 1 2 3 4 5 6 7 8 9 10 11 12 13 14 15 16 17 18 19 20 21 22 23 24 25 26 27

000
ASUS45 KBOI 282310
RWRID

IDAHO REGIONAL WEATHER ROUNDUP
NATIONAL WEATHER SERVICE BOISE ID
500 PM MDT TUE MAR 28 2017

NOTE: "FAIR" INDICATES FEW OR NO CLOUDS BELOW 12000 FEET
WITH NO SIGNIFICANT WEATHER AND/OR OBSTRUCTIONS TO VISIBILITY

IDZ012-014-290000-
SOUTHWEST IDAHO


CITY           SKY/WX    TMP DP  RH WIND       PRES   REMARKS
BOISE          PTSUNNY   54  30  40 N12       30.25F
CALDWELL       PTSUNNY   56  33  42 W8        30.26F
MOUNTAIN HOME  MOSUNNY   55  32  41 NW21G26   30.23S
$$

IDZ016-017-290000-
SOUTHCENTRAL IDAHO


CITY           SKY/WX    TMP DP  RH WIND       PRES   REMARKS
BURLEY         SUNNY     51  23  33 W13       30.19S
JEROME         SUNNY     51  26  37 W16G25    30.21S
TWIN FALLS     SUNNY     50  23  34 W20       30.22S
$$

IDZ019>023-290000-
SOUTHEAST IDAHO


CITY           SKY/WX    TMP DP  RH WIND       PRES   REMARKS
IDAHO FALLS    PTSUNNY   50  31  48 SW10      30.17S
POCATELLO      MOSUNNY   49  29  46 W14       30.19F
REXBURG        SUNNY     49  20  31 VRB3      30.15S
$$

IDZ006-010-011-018-031-032-290000-
CENTRAL IDAHO MOUNTAINS


CITY           SKY/WX    TMP DP  RH WIND       PRES   REMARKS
MCCALL         CLOUDY    41  24  51 W7        30.21R
HAILEY         MOSUNNY   46  21  36 SW3       30.18F
STANLEY          N/A     43  17  35 NE5       30.19R
SALMON         MOSUNNY   54  21  28 NW8       30.12F
CHALLIS        SUNNY     51  20  29 S6        30.13S
$$

IDZ002-004-006-007-026-290000-
NORTHERN IDAHO


CITY           SKY/WX    TMP DP  RH WIND       PRES   REMARKS
LEWISTON       CLOUDY    54  36  50 NW6       30.23S
LOWELL           N/A     53  41  63 CALM      30.24F
COEUR D`ALENE  LGT RAIN  43  39  86 S10       30.22S
MULLAN PASS    LGT SNOW  29  28  96 VRB6      30.14S VSB 3/4 WCI  23
$$




USA.gov is the U.S. government's official web portal to all federal, state and local government web resources and services.